Regional Weather Roundup
Issued by NWS

Home | Current Version | Previous Version | Text Only | Print | Product List | Glossary On
Versions: 1 2 3 4 5 6 7 8 9 10 11 12 13 14 15 16 17 18 19 20 21 22 23 24 25 26 27 28 29 30 31 32 33 34 35 36 37 38 39 40 41 42 43 44 45 46 47 48 49 50
000
ASUS44 KFWD 150410
RWRTX
NORTH TEXAS HOURLY WEATHER ROUNDUP
NATIONAL WEATHER SERVICE FORT WORTH TX
1000 PM CST THU DEC 14 2017

NOTE: "FAIR" INDICATES FEW OR NO CLOUDS BELOW 12,000 FEET WITH NO
SIGNIFICANT WEATHER AND/OR OBSTRUCTIONS TO VISIBILITY.

TXZ118-119-150500-
DALLAS/FORT WORTH METROPLEX

CITY           SKY/WX    TMP DP  RH WIND       PRES   REMARKS
DFW AIRPORT    PTCLDY    47  28  47 N10       30.21R
DALLAS LOVE    PTCLDY    47  27  45 N9        30.22R
FTW MEACHAM    CLEAR     45  27  49 N8        30.23R
DAL-EXECUTIVE  CLEAR     46  27  47 N8        30.20R
FTW-ALLIANCE   PTCLDY    40  26  57 N5        30.22R WCI  37
FTW-NAS-JRB    CLEAR     47  26  44 N8        30.24R
FTW-SPINKS     CLEAR     42  27  53 N9        30.22R WCI  37
ARLINGTON      CLEAR     43  27  53 NW9       30.21R WCI  38
GRAND PRAIRIE  CLEAR     47  27  45 N8        30.23R
ADDISON        CLEAR     45  27  48 N7        30.24R
MESQUITE       CLEAR     45  28  50 N8        30.22R
LANCASTER      CLEAR     43  23  46 N6        30.22R WCI  39
$$

TXZ091>094-102>105-117-120-121-131>134-150500-
NORTH CENTRAL TEXAS

CITY           SKY/WX    TMP DP  RH WIND       PRES   REMARKS
SHRMAN/DENISON CLEAR     40  28  61 CALM      30.21S
GAINESVILLE    CLEAR     36  24  63 CALM      30.23R
BOWIE          CLEAR     36  26  66 CALM      30.21R
BRIDGEPORT     CLEAR     35  24  64 CALM      30.25R
DECATUR        CLEAR     42  25  50 N5        30.21R WCI  40
DENTON         PTCLDY    39  26  59 NW5       30.23R WCI  36
MCKINNEY       CLEAR     44  27  51 N8        30.21R WCI  39
BONHAM         CLEAR     39  25  58 N3        30.20S
GREENVILLE     PTCLDY    43  30  61 CALM      30.22R
ROCKWALL       CLEAR     42  28  58 CALM      30.21R
TERRELL        CLOUDY    46  26  45 N7        30.22R
WAXAHACHIE     CLEAR     41  29  62 N7        30.21R WCI  36
CLEBURNE       CLEAR     39  27  60 N7        30.23R WCI  34
GRANBURY       CLEAR     44  28  53 NW7       30.24R WCI  40
$$

TXZ083>090-098>101-113>116-127>130-139>142-154-155-150500-
WESTERN NORTH TEXAS

CITY           SKY/WX    TMP DP  RH WIND       PRES   REMARKS
WICHITA FALLS  PTCLDY    41  25  53 NW5       30.21S WCI  38
WF-KICKAPOO    CLEAR     41  26  57 CALM      30.24R
VERNON         CLEAR     38  21  49 W6        30.24R WCI  34
ABILENE        CLEAR     38  25  59 CALM      30.25R
ABILENE-DYESS  CLEAR     36  24  61 N5        30.25R WCI  32
GRAHAM           N/A     37  26  65 CALM      30.23R
BRECKENRIDGE   CLEAR     40  27  58 CALM      30.25R
CISCO          CLEAR     41  27  56 N5        30.24R WCI  38
EASTLAND       CLEAR     35  24  64 N3        30.24R
RANGER         CLEAR     40  28  63 N7        30.24R WCI  35
MINERAL WELLS  CLEAR     41  24  51 NW3       30.22R
STEPHENVILLE   CLEAR     42  26  53 N7        30.24S WCI  38
COMANCHE       CLEAR     41  28  59 N6        30.24R WCI  37
BROWNWOOD      CLOUDY    45  27  49 N5        30.24R
COLEMAN        MOCLDY    40  25  55 N7        30.24R WCI  35
$$

TXZ143>147-156>162-174-175-150500-
CENTRAL TEXAS

CITY           SKY/WX    TMP DP  RH WIND       PRES   REMARKS
WACO           PTCLDY    48  28  46 N10       30.19R
WACO-TSTC      CLEAR     48  28  46 N8        30.19R
WACO-MCGREGOR  PTCLDY    48  28  46 N10       30.19R
HILLSBORO      PTCLDY    43  28  55 N6        30.19R WCI  39
CORSICANA      MOCLDY    47  28  47 N10       30.20R
MEXIA          CLOUDY    48  27  44 NW9G16    30.17R
HEARNE         PTCLDY    53  29  40 N13G20    30.16R
CAMERON        PTCLDY    52  30  43 N13       30.16R
TEMPLE         PTCLDY    48  29  47 N10       30.18R
KILLEEN        CLEAR     48  27  44 N12       30.16R
KILLEEN-SKYLRK CLOUDY    49  28  44 N12       30.18R
FORT HOOD      PTCLDY    49  28  43 N13       30.14R
GATESVILLE     CLOUDY    48  27  43 N7        30.21R
HAMILTON       PTCLDY    46  28  51 N10       30.21R
LAMPASAS       CLOUDY    48  27  44 N8        30.17R
$$

TXZ095>097-106>112-122>126-135>138-148>153-164>167-150500-
EAST TEXAS

CITY           SKY/WX    TMP DP  RH WIND       PRES   REMARKS
PARIS          PTCLDY    38  27  64 N6        30.19R WCI  33
SULPHUR SPRNGS CLEAR     42  29  60 N6        30.22R WCI  39
MOUNT PLEASANT CLOUDY    43  29  57 N9        30.19R WCI  37
GILMER         CLOUDY    46  28  50 NW6       30.16R
MINEOLA        MOCLDY    45  27  49 N6        30.20R
TYLER          PTCLDY    47  27  45 N10       30.16R
LONGVIEW       PTCLDY    49  31  49 N12       30.14R
MARSHALL       CLOUDY    46  28  49 N9        30.16R
ATHENS         PTCLDY    45  27  49 N9        30.17R WCI  40
PALESTINE      CLOUDY    48  30  48 N10       30.17R
JACKSONVILLE   CLEAR     48  30  49 N6        30.16R
HENDERSON      PTCLDY    47  29  49 N5        30.16R
CENTER         CLOUDY    44  33  66 NW5       30.13R
NACOGDOCHES    PTCLDY    47  33  58 N7        30.14R
LUFKIN         PTCLDY    48  38  68 N5        30.12R
$$

SUPPLEMENTAL OBSERVATIONS (NWS FORT WORTH AREA)

CITY           SKY/WX    TMP DP  RH WIND       PRES   REMARKS
CADDO GRASSLND   N/A     36  25  64 CALM        N/A
LBJ GRASSLAND    N/A     39  25  56 N2          N/A
POSSUM KINGDOM   N/A     41  27  56 W3          N/A
GRANBURY         N/A     43  27  52 NW9         N/A  WCI  37
MCGREGOR         N/A     48  28  46 N5G13       N/A
TEMPLE           N/A     52  30  43 N16G22      N/A
$$

SUPPLEMENTAL OBSERVATIONS (NWS NORMAN AREA)

CITY           SKY/WX    TMP DP  RH WIND       PRES   REMARKS
GOODLETT         N/A     41  28  59 W10       30.24R WCI  35
ODELL            N/A     36  25  65 W6        30.25R WCI  31
CROWELL          N/A     40  27  59 W7        30.26R WCI  35
KNOX CITY        N/A     33  19  57 SW3       30.27R
SEYMOUR          N/A     34  24  66 W6        30.26R WCI  29
MILLERS CREEK    N/A     36  25  64 S5          N/A  WCI  32
$$

SUPPLEMENTAL OBSERVATIONS (NWS SAN ANGELO AREA)

CITY           SKY/WX    TMP DP  RH WIND       PRES   REMARKS
WEINERT          N/A     35  22  57 W3        30.27R
HASKELL          N/A     36  22  57 NW8       30.26R WCI  30
THROCKMORTON     N/A     39  28  63 W3        30.26R
STAMFORD         N/A     35  22  59 N5        30.27R WCI  31
CLYDE            N/A     39  24  55 NE6       30.26R WCI  35
HAMBY            N/A     36  25  64 N1          N/A
$$

SUPPLEMENTAL OBSERVATIONS (NWS SHREVEPORT AREA)

CITY           SKY/WX    TMP DP  RH WIND       PRES   REMARKS
TEXARKANA        N/A     46  30  53 NW6         N/A
LINDEN           N/A     46  30  53 N2          N/A
LUFKIN           N/A     48  36  61 MISG        N/A
N SABINE NF      N/A     39  36  87 MISG        N/A
$$

SUPPLEMENTAL OBSERVATIONS ARE A COLLECTION OF AUTOMATED INSTRUMENTS
THAT ARE MAINTAINED BY A VARIETY OF FEDERAL AND STATE AGENCIES.
CERTAIN ELEMENTS...SUCH AS HUMIDITY VALUES AND SUSTAINED WIND
SPEEDS...MAY BE APPROXIMATED.





USA.gov is the U.S. government's official web portal to all federal, state and local government web resources and services.